Simultaneous Nadir Overpasses (SNOs) Predictions

Prediction of SNOs between FY3D and AQUA Satellite Orbit:

Table of predicted SNOs for the next 14.0 days since TLE Epoch: 6/25/2022
Index Date (FY3D) Time (FY3D) Lat,Lon (FY3D) SZA (FY3D ) Date (AQUA) Time (AQUA) Lat,Lon (AQUA) SZA (AQUA ) Distance(km) Time Diff (sec)
1 06/27/2022 13:19:23 -75.91, 149.69 127.17 06/27/2022 13:19:38 -75.90, 149.76 127.18 2.03 15
2 06/27/2022 14:09:43 74.65, -39.17 51.42 06/27/2022 14:08:40 74.65, -39.14 51.42 0.73 63
3 06/30/2022 03:55:48 -76.20, -70.37 126.69 06/30/2022 03:56:49 -76.21, -70.45 126.69 2.34 61
4 06/30/2022 04:46:18 75.43, 99.51 52.43 06/30/2022 04:46:00 75.43, 99.55 52.42 1.32 18
5 07/02/2022 19:22:48 76.01,-121.44 53.28 07/02/2022 19:23:15 76.00,-121.42 53.26 0.66 27
6 07/02/2022 20:13:11 -75.00, 49.06 127.87 07/02/2022 20:12:20 -75.00, 49.10 127.87 1.52 51
7 07/05/2022 09:59:16 76.44, 17.96 54.02 07/05/2022 10:00:28 76.44, 17.91 54.00 1.42 72
8 07/05/2022 10:49:41 -75.54,-171.64 127.03 07/05/2022 10:49:35 -75.55,-171.66 127.03 0.51 6
9 07/08/2022 01:26:16 -76.30, -33.28 125.87 07/08/2022 01:26:54 -76.30, -33.21 125.89 2.05 38



Historial Predications of SNOs between FY3D and AQUA
